Notices

What's New in latest Release from April 7th, 2021:

- Updated Glossary, including Speed of Maximum Gust, and Total Hourly Precipitation

- Updated national and regional climate services offices contacts and prices information

- Addition of station inventory lists for 1981-2010, 1971-2000, and 1961-1990 Normals.

If you haven't already, please take our survey and provide feedback about our website: https://eccc.sondage-survey.ca/f/LanguageSelection.aspx?s=442ca660-fcf1-47c0-95a9-59707d6fd709

Hourly Data Report for April 30, 2018

MIRAMICHI RCS
NEW BRUNSWICK
Current Station Operator: ECCC - MSC

47°00'34.000" N
65°27'54.000" W
33.00 m
8100989
71744
ACQ

Download Data

Hourly Data (April 2018)
Hourly Data Report for April 30, 2018
TIME
LST
Temp Definition
°C
Dew Point Definition
°C
Rel Hum Definition
%
Precip. Amount Definition
mm

Wind Dir Definition
10's deg

Wind Spd Definition
km/h
Visibility Definition
km
Stn Press Definition
kPa
Hmdx Definition


Wind Chill Definition


Weather Definition


00:00 4.0 3.6 98 0.0 6 9   101.37     LegendNANA
01:00 3.7 3.4 98 0.2 5 10   101.35     LegendNANA
02:00 3.5 3.2 98 0.0 3 9   101.39     LegendNANA
03:00 3.6 3.4 98 0.0 7 15   101.34     LegendNANA
04:00 3.6 3.4 98 0.2 6 12   101.34     LegendNANA
05:00 4.2 3.8 98 0.0 7 16   101.38     LegendNANA
06:00 4.0 3.5 97 0.0 7 15   101.47     LegendNANA
07:00 4.2 3.5 95 0.0 6 19   101.46     LegendNANA
08:00 3.9 3.1 94 0.0 7 23   101.46     LegendNANA
09:00 4.1 2.7 90 0.0 6 28   101.42     LegendNANA
10:00 3.8 2.1 89 0.0 6 29   101.43     LegendNANA
11:00 2.8 1.9 94 0.0 6 25   101.51     LegendNANA
12:00 2.2 1.8 97 0.0 5 24   101.46     LegendNANA
13:00 2.5 1.9 96 0.9 5 26   101.42     LegendNANA
14:00 2.8 2.1 95 0.9 6 25   101.33     LegendNANA
15:00 2.3 1.8 96 0.3 6 26   101.28     LegendNANA
16:00 2.2 1.8 98 0.3 6 28   101.17     LegendNANA
17:00 2.4 1.8 96 0.0 6 14   101.24     LegendNANA
18:00 1.9 1.5 97 0.9 5 23   101.21     LegendNANA
19:00 2.9 2.4 97 0.8 3 8   101.22     LegendNANA
20:00 2.9 2.4 97 0.8 4 8   101.20     LegendNANA
21:00 2.6 2.2 97 0.2 3 8   101.21     LegendNANA
22:00 2.5 2.1 98 0.0 3 9   101.14     LegendNANA
23:00 2.5 2.2 98 0.0 3 6   101.11     LegendNANA

Notes on Data Quality.

Legend

  • E = Estimated
  • M = Missing
  • NA = Not Available*
  • [empty] = Indicates an unobserved value
Date modified: